Time,TemperatureF,DewpointF,PressureIn,WindDirection,WindDirectionDegrees,WindSpeedMPH,WindSpeedGustMPH,Humidity,HourlyPrecipIn,Conditions,Clouds,dailyrainin,SolarRadiationWatts/m^2,SoftwareType,DateUTC
2013-02-13 00:00:00,40.8,31.8,30.02,WNW,300,4.0,14.0,70,0.00,,---,0.01,0.00,VWS V14.00,2013-02-13 06:00:00,
2013-02-13 00:05:00,40.7,31.7,30.03,NW,318,9.0,12.0,70,0.00,,---,0.00,0.00,VWS V14.00,2013-02-13 06:05:00,
2013-02-13 00:10:00,40.5,31.9,30.03,WNW,288,7.0,14.0,71,0.00,,---,0.00,0.00,VWS V14.00,2013-02-13 06:10:00,
2013-02-13 00:15:00,40.4,31.8,30.03,West,279,2.0,9.0,71,0.00,,---,0.00,0.00,VWS V14.00,2013-02-13 06:15:00,
2013-02-13 00:20:00,40.3,31.7,30.04,NW,321,2.0,11.0,71,0.00,,---,0.00,0.00,VWS V14.00,2013-02-13 06:20:00,
2013-02-13 00:25:00,40.1,31.5,30.05,WNW,294,5.0,9.0,71,0.00,,---,0.00,0.00,VWS V14.00,2013-02-13 06:25:00,
2013-02-13 00:30:00,40.0,31.7,30.05,WNW,294,4.0,9.0,72,0.00,,---,0.00,0.00,VWS V14.00,2013-02-13 06:30:00,
2013-02-13 00:35:00,39.9,31.6,30.05,WNW,293,2.0,6.0,72,0.00,,---,0.00,0.00,VWS V14.00,2013-02-13 06:35:00,
2013-02-13 00:40:00,39.7,31.8,30.05,WNW,300,0.0,14.0,73,0.00,,---,0.00,0.00,VWS V14.00,2013-02-13 06:40:00,
2013-02-13 00:45:00,39.6,31.7,30.03,WNW,294,4.0,9.0,73,0.00,,---,0.00,0.00,VWS V14.00,2013-02-13 06:45:00,
2013-02-13 00:50:00,39.5,31.6,30.04,WNW,294,4.0,9.0,73,0.00,,---,0.00,0.00,VWS V14.00,2013-02-13 06:50:00,
2013-02-13 00:55:00,39.3,31.4,30.05,WNW,295,0.0,4.0,73,0.00,,---,0.00,0.00,VWS V14.00,2013-02-13 06:55:00,
2013-02-13 01:00:00,39.2,31.6,30.05,WNW,295,0.0,5.0,74,0.00,,---,0.00,0.00,VWS V14.00,2013-02-13 07:00:00,
2013-02-13 01:05:00,39.1,31.5,30.06,WNW,295,1.0,2.0,74,0.00,,---,0.00,0.00,VWS V14.00,2013-02-13 07:05:00,
2013-02-13 01:10:00,38.9,31.3,30.06,WNW,303,0.0,9.0,74,0.00,,---,0.00,0.00,VWS V14.00,2013-02-13 07:10:00,
2013-02-13 01:15:00,38.8,31.2,30.06,WNW,302,5.0,5.0,74,0.00,,---,0.00,0.00,VWS V14.00,2013-02-13 07:15:00,
2013-02-13 01:20:00,38.6,31.4,30.06,WNW,300,0.0,7.0,75,0.00,,---,0.00,0.00,VWS V14.00,2013-02-13 07:20:00,
2013-02-13 01:25:00,38.6,31.4,30.06,WNW,300,0.0,0.0,75,0.00,,---,0.00,0.00,VWS V14.00,2013-02-13 07:25:00,
2013-02-13 01:30:00,38.4,31.2,30.07,WNW,300,2.0,4.0,75,0.00,,---,0.00,0.00,VWS V14.00,2013-02-13 07:30:00,
2013-02-13 01:35:00,38.2,31.0,30.06,WNW,300,0.0,2.0,75,0.00,,---,0.00,0.00,VWS V14.00,2013-02-13 07:35:00,
2013-02-13 01:40:00,38.1,31.2,30.06,WNW,300,1.0,4.0,76,0.00,,---,0.00,0.00,VWS V14.00,2013-02-13 07:40:00,
2013-02-13 01:45:00,37.9,31.0,30.06,WNW,300,0.0,5.0,76,0.00,,---,0.00,0.00,VWS V14.00,2013-02-13 07:45:00,
2013-02-13 01:50:00,37.7,31.1,30.06,WNW,300,2.0,6.0,77,0.00,,---,0.00,0.00,VWS V14.00,2013-02-13 07:50:00,
2013-02-13 01:55:00,37.5,31.0,30.06,WNW,300,1.0,5.0,77,0.00,,---,0.00,0.00,VWS V14.00,2013-02-13 07:55:00,
2013-02-13 02:00:00,37.4,31.2,30.06,WNW,300,2.0,5.0,78,0.00,,---,0.00,0.00,VWS V14.00,2013-02-13 08:00:00,
2013-02-13 02:05:00,37.3,31.1,30.06,WNW,300,0.0,7.0,78,0.00,,---,0.00,0.00,VWS V14.00,2013-02-13 08:05:00,
2013-02-13 02:10:00,37.1,30.9,30.07,WNW,300,2.0,7.0,78,0.00,,---,0.00,0.00,VWS V14.00,2013-02-13 08:10:00,
2013-02-13 02:15:00,36.9,30.7,30.07,WNW,300,0.0,4.0,78,0.00,,---,0.00,0.00,VWS V14.00,2013-02-13 08:15:00,
2013-02-13 02:20:00,36.8,30.6,30.08,WNW,300,0.0,4.0,78,0.00,,---,0.00,0.00,VWS V14.00,2013-02-13 08:20:00,
2013-02-13 02:25:00,36.7,30.8,30.08,WNW,300,0.0,0.0,79,0.00,,---,0.00,0.00,VWS V14.00,2013-02-13 08:25:00,
2013-02-13 02:30:00,36.5,30.6,30.08,WNW,300,0.0,0.0,79,0.00,,---,0.00,0.00,VWS V14.00,2013-02-13 08:30:00,
2013-02-13 02:35:00,36.4,30.5,30.09,WNW,300,0.0,0.0,79,0.00,,---,0.00,0.00,VWS V14.00,2013-02-13 08:35:00,
2013-02-13 02:40:00,36.3,30.4,30.09,WNW,300,0.0,0.0,79,0.00,,---,0.00,0.00,VWS V14.00,2013-02-13 08:40:00,
2013-02-13 02:45:00,36.2,30.3,30.09,WNW,300,0.0,0.0,79,0.00,,---,0.00,0.00,VWS V14.00,2013-02-13 08:45:00,
2013-02-13 02:50:00,36.0,30.4,30.09,WNW,300,0.0,0.0,80,0.00,,---,0.00,0.00,VWS V14.00,2013-02-13 08:50:00,
2013-02-13 02:55:00,35.9,30.3,30.09,WNW,300,0.0,0.0,80,0.00,,---,0.00,0.00,VWS V14.00,2013-02-13 08:55:00,
2013-02-13 03:00:00,35.7,30.1,30.09,WNW,300,0.0,0.0,80,0.00,,---,0.00,0.00,VWS V14.00,2013-02-13 09:00:00,
2013-02-13 03:05:00,35.6,30.4,30.09,WNW,300,0.0,0.0,81,0.00,,---,0.00,0.00,VWS V14.00,2013-02-13 09:05:00,
2013-02-13 03:10:00,35.6,30.4,30.09,WNW,300,0.0,2.0,81,0.00,,---,0.00,0.00,VWS V14.00,2013-02-13 09:10:00,
2013-02-13 03:15:00,35.5,30.6,30.09,WNW,300,4.0,4.0,82,0.00,,---,0.00,0.00,VWS V14.00,2013-02-13 09:15:00,
2013-02-13 03:20:00,35.6,30.7,30.09,WNW,300,0.0,4.0,82,0.00,,---,0.00,0.00,VWS V14.00,2013-02-13 09:20:00,
2013-02-13 03:25:00,35.5,30.6,30.08,WNW,300,0.0,2.0,82,0.00,,---,0.00,0.00,VWS V14.00,2013-02-13 09:25:00,
2013-02-13 03:30:00,35.5,30.6,30.08,WNW,300,2.0,2.0,82,0.00,,---,0.00,0.00,VWS V14.00,2013-02-13 09:30:00,
2013-02-13 03:35:00,35.5,30.6,30.09,WNW,300,0.0,1.0,82,0.00,,---,0.00,0.00,VWS V14.00,2013-02-13 09:35:00,
2013-02-13 03:40:00,35.5,30.6,30.09,WNW,300,0.0,1.0,82,0.00,,---,0.00,0.00,VWS V14.00,2013-02-13 09:40:00,
2013-02-13 03:45:00,35.4,30.5,30.10,WNW,300,0.0,0.0,82,0.00,,---,0.00,0.00,VWS V14.00,2013-02-13 09:45:00,
2013-02-13 03:50:00,35.3,30.4,30.10,WNW,300,0.0,1.0,82,0.00,,---,0.00,0.00,VWS V14.00,2013-02-13 09:50:00,
2013-02-13 03:55:00,35.3,30.4,30.10,WNW,300,0.0,0.0,82,0.00,,---,0.00,0.00,VWS V14.00,2013-02-13 09:55:00,
2013-02-13 04:00:00,35.2,30.3,30.10,WNW,300,1.0,1.0,82,0.00,,---,0.00,0.00,VWS V14.00,2013-02-13 10:00:00,
2013-02-13 04:05:00,35.0,30.1,30.10,WNW,300,0.0,2.0,82,0.00,,---,0.00,0.00,VWS V14.00,2013-02-13 10:05:00,
2013-02-13 04:10:00,34.9,30.0,30.09,WNW,300,1.0,4.0,82,0.00,,---,0.00,0.00,VWS V14.00,2013-02-13 10:10:00,
2013-02-13 04:15:00,34.7,30.1,30.08,WNW,300,2.0,4.0,83,0.00,,---,0.00,0.00,VWS V14.00,2013-02-13 10:15:00,
2013-02-13 04:20:00,34.7,30.1,30.08,WNW,300,2.0,4.0,83,0.00,,---,0.00,0.00,VWS V14.00,2013-02-13 10:20:00,
2013-02-13 04:25:00,34.6,30.3,30.08,WNW,300,1.0,4.0,84,0.00,,---,0.00,0.00,VWS V14.00,2013-02-13 10:25:00,
2013-02-13 04:30:00,34.6,30.3,30.09,WNW,300,1.0,6.0,84,0.00,,---,0.00,0.00,VWS V14.00,2013-02-13 10:30:00,
2013-02-13 04:35:00,34.6,30.3,30.08,WNW,300,0.0,5.0,84,0.00,,---,0.00,0.00,VWS V14.00,2013-02-13 10:35:00,
2013-02-13 04:40:00,34.5,30.2,30.09,WNW,300,0.0,5.0,84,0.00,,---,0.00,0.00,VWS V14.00,2013-02-13 10:40:00,
2013-02-13 04:45:00,34.4,30.1,30.09,WNW,300,1.0,2.0,84,0.00,,---,0.00,0.00,VWS V14.00,2013-02-13 10:45:00,
2013-02-13 04:50:00,34.3,30.0,30.09,WNW,300,2.0,4.0,84,0.00,,---,0.00,0.00,VWS V14.00,2013-02-13 10:50:00,
2013-02-13 04:55:00,34.2,30.2,30.09,WNW,300,0.0,2.0,85,0.00,,---,0.00,0.00,VWS V14.00,2013-02-13 10:55:00,
2013-02-13 05:00:00,34.1,30.1,30.09,WNW,300,0.0,4.0,85,0.00,,---,0.00,0.00,VWS V14.00,2013-02-13 11:00:00,
2013-02-13 05:05:00,34.1,30.1,30.09,WNW,300,1.0,4.0,85,0.00,,---,0.00,0.00,VWS V14.00,2013-02-13 11:05:00,
2013-02-13 05:10:00,34.0,30.0,30.10,WNW,300,0.0,4.0,85,0.00,,---,0.00,0.00,VWS V14.00,2013-02-13 11:10:00,
2013-02-13 05:15:00,33.9,29.9,30.10,WNW,300,0.0,2.0,85,0.00,,---,0.00,0.00,VWS V14.00,2013-02-13 11:15:00,
2013-02-13 05:20:00,33.9,29.9,30.10,WNW,300,1.0,4.0,85,0.00,,---,0.00,0.00,VWS V14.00,2013-02-13 11:20:00,
2013-02-13 05:25:00,33.8,29.8,30.10,WNW,300,1.0,2.0,85,0.00,,---,0.00,0.00,VWS V14.00,2013-02-13 11:25:00,
2013-02-13 05:30:00,33.8,29.8,30.10,WNW,300,0.0,2.0,85,0.00,,---,0.00,0.00,VWS V14.00,2013-02-13 11:30:00,
2013-02-13 05:35:00,33.7,29.7,30.10,WNW,300,0.0,1.0,85,0.00,,---,0.00,0.00,VWS V14.00,2013-02-13 11:35:00,
2013-02-13 05:40:00,33.7,29.7,30.10,WNW,300,1.0,2.0,85,0.00,,---,0.00,0.00,VWS V14.00,2013-02-13 11:40:00,
2013-02-13 05:45:00,33.6,29.6,30.10,WNW,300,2.0,2.0,85,0.00,,---,0.00,0.00,VWS V14.00,2013-02-13 11:45:00,
2013-02-13 05:50:00,33.5,29.5,30.11,WNW,300,1.0,4.0,85,0.00,,---,0.00,0.00,VWS V14.00,2013-02-13 11:50:00,
2013-02-13 05:54:00,33.4,29.7,30.11,WNW,300,1.0,2.0,86,0.00,,---,0.00,0.00,VWS V14.00,2013-02-13 11:54:00,
2013-02-13 05:59:00,33.4,29.7,30.11,WNW,300,0.0,4.0,86,0.00,,---,0.00,0.00,VWS V14.00,2013-02-13 11:59:00,
2013-02-13 06:04:00,33.3,29.6,30.11,WNW,300,4.0,6.0,86,0.00,,---,0.00,0.00,VWS V14.00,2013-02-13 12:04:00,
2013-02-13 06:09:00,33.3,29.6,30.11,WNW,300,0.0,6.0,86,0.00,,---,0.00,0.00,VWS V14.00,2013-02-13 12:09:00,
2013-02-13 06:14:00,33.3,29.6,30.11,WNW,300,0.0,5.0,86,0.00,,---,0.00,0.00,VWS V14.00,2013-02-13 12:14:00,
2013-02-13 06:19:00,33.3,29.6,30.11,WNW,300,2.0,5.0,86,0.00,,---,0.00,0.00,VWS V14.00,2013-02-13 12:19:00,
2013-02-13 06:24:00,33.3,29.6,30.11,WNW,300,0.0,0.0,86,0.00,,---,0.00,0.00,VWS V14.00,2013-02-13 12:24:00,
2013-02-13 06:29:00,33.3,29.6,30.11,WNW,300,0.0,4.0,86,0.00,,---,0.00,0.00,VWS V14.00,2013-02-13 12:29:00,
2013-02-13 06:34:00,33.3,29.6,30.12,WNW,300,0.0,1.0,86,0.00,,---,0.00,0.00,VWS V14.00,2013-02-13 12:34:00,
2013-02-13 06:39:00,33.2,29.5,30.12,WNW,300,0.0,2.0,86,0.00,,---,0.00,0.00,VWS V14.00,2013-02-13 12:39:00,
2013-02-13 06:44:00,33.2,29.5,30.12,WNW,300,0.0,2.0,86,0.00,,---,0.00,0.00,VWS V14.00,2013-02-13 12:44:00,
2013-02-13 06:49:00,33.2,29.5,30.12,WNW,300,0.0,2.0,86,0.00,,---,0.00,0.00,VWS V14.00,2013-02-13 12:49:00,
2013-02-13 06:54:00,33.2,29.5,30.12,WNW,300,0.0,2.0,86,0.00,,---,0.00,0.00,VWS V14.00,2013-02-13 12:54:00,
2013-02-13 06:59:00,33.1,29.4,30.12,WNW,300,0.0,2.0,86,0.00,,---,0.00,0.00,VWS V14.00,2013-02-13 12:59:00,
2013-02-13 07:04:00,33.0,29.3,30.13,WNW,300,0.0,2.0,86,0.00,,---,0.00,0.00,VWS V14.00,2013-02-13 13:04:00,
2013-02-13 07:09:00,32.9,29.5,30.13,WNW,300,0.0,2.0,87,0.00,,---,0.00,0.00,VWS V14.00,2013-02-13 13:09:00,
2013-02-13 07:14:00,32.9,29.5,30.13,WNW,300,4.0,4.0,87,0.00,,---,0.00,0.00,VWS V14.00,2013-02-13 13:14:00,
2013-02-13 07:19:00,32.9,29.5,30.13,WNW,300,0.0,4.0,87,0.00,,---,0.00,5.00,VWS V14.00,2013-02-13 13:19:00,
2013-02-13 07:24:00,32.9,29.5,30.13,WNW,300,0.0,4.0,87,0.00,,---,0.00,9.00,VWS V14.00,2013-02-13 13:24:00,
2013-02-13 07:29:00,33.0,29.6,30.14,WNW,300,0.0,4.0,87,0.00,,---,0.00,12.00,VWS V14.00,2013-02-13 13:29:00,
2013-02-13 07:34:00,33.0,29.6,30.15,WNW,300,0.0,0.0,87,0.00,,---,0.00,14.00,VWS V14.00,2013-02-13 13:34:00,
2013-02-13 07:39:00,33.1,29.7,30.14,WNW,300,0.0,4.0,87,0.00,,---,0.00,16.00,VWS V14.00,2013-02-13 13:39:00,
2013-02-13 07:44:00,33.1,29.7,30.15,WNW,300,0.0,1.0,87,0.00,,---,0.00,19.00,VWS V14.00,2013-02-13 13:44:00,
2013-02-13 07:49:00,33.1,29.7,30.15,WNW,300,0.0,2.0,87,0.00,,---,0.00,21.00,VWS V14.00,2013-02-13 13:49:00,
2013-02-13 07:54:00,33.1,29.7,30.16,WNW,300,0.0,1.0,87,0.00,,---,0.00,42.00,VWS V14.00,2013-02-13 13:54:00,
2013-02-13 07:59:00,33.1,29.7,30.15,WNW,300,2.0,5.0,87,0.00,,---,0.00,56.00,VWS V14.00,2013-02-13 13:59:00,
2013-02-13 08:04:00,33.3,30.1,30.16,WNW,300,2.0,5.0,88,0.00,,---,0.00,72.00,VWS V14.00,2013-02-13 14:04:00,
2013-02-13 08:09:00,33.5,30.3,30.15,WNW,300,1.0,5.0,88,0.00,,---,0.00,90.00,VWS V14.00,2013-02-13 14:09:00,
2013-02-13 08:14:00,33.8,30.6,30.15,WNW,300,2.0,2.0,88,0.00,,---,0.00,105.00,VWS V14.00,2013-02-13 14:14:00,
2013-02-13 08:19:00,34.0,30.8,30.16,WNW,300,1.0,5.0,88,0.00,,---,0.00,125.00,VWS V14.00,2013-02-13 14:19:00,
2013-02-13 08:24:00,34.3,31.1,30.16,WNW,300,2.0,5.0,88,0.00,,---,0.00,146.00,VWS V14.00,2013-02-13 14:24:00,
2013-02-13 08:29:00,34.7,31.5,30.16,WNW,300,0.0,5.0,88,0.00,,---,0.00,167.00,VWS V14.00,2013-02-13 14:29:00,
2013-02-13 08:34:00,35.1,31.6,30.16,WNW,300,5.0,5.0,87,0.00,,---,0.00,190.00,VWS V14.00,2013-02-13 14:34:00,
2013-02-13 08:39:00,35.6,32.1,30.17,WNW,300,5.0,6.0,87,0.00,,---,0.00,211.00,VWS V14.00,2013-02-13 14:39:00,
2013-02-13 08:44:00,36.0,32.5,30.17,WNW,300,5.0,5.0,87,0.00,,---,0.00,230.00,VWS V14.00,2013-02-13 14:44:00,
2013-02-13 08:49:00,36.6,32.8,30.17,WNW,299,2.0,9.0,86,0.00,,---,0.00,251.00,VWS V14.00,2013-02-13 14:49:00,
2013-02-13 08:54:00,37.1,33.0,30.17,WNW,288,8.0,8.0,85,0.00,,---,0.00,271.00,VWS V14.00,2013-02-13 14:54:00,
2013-02-13 08:59:00,37.6,33.5,30.17,West,278,2.0,11.0,85,0.00,,---,0.00,288.00,VWS V14.00,2013-02-13 14:59:00,
2013-02-13 09:04:00,38.1,33.7,30.17,West,278,5.0,8.0,84,0.00,,---,0.00,304.00,VWS V14.00,2013-02-13 15:04:00,
2013-02-13 09:09:00,38.5,33.8,30.17,West,278,5.0,8.0,83,0.00,,---,0.00,323.00,VWS V14.00,2013-02-13 15:09:00,
2013-02-13 09:14:00,39.0,34.0,30.17,West,278,6.0,7.0,82,0.00,,---,0.00,339.00,VWS V14.00,2013-02-13 15:14:00,
2013-02-13 09:19:00,39.7,34.4,30.18,West,278,7.0,8.0,81,0.00,,---,0.00,355.00,VWS V14.00,2013-02-13 15:19:00,
2013-02-13 09:24:00,40.3,34.3,30.18,WNW,284,0.0,12.0,79,0.00,,---,0.00,371.00,VWS V14.00,2013-02-13 15:24:00,
2013-02-13 09:29:00,40.8,34.5,30.17,WNW,284,5.0,12.0,78,0.00,,---,0.00,388.00,VWS V14.00,2013-02-13 15:29:00,
2013-02-13 09:34:00,41.4,34.4,30.18,WNW,286,6.0,8.0,76,0.00,,---,0.00,406.00,VWS V14.00,2013-02-13 15:34:00,
2013-02-13 09:39:00,41.6,34.3,30.18,WNW,301,2.0,11.0,75,0.00,,---,0.00,422.00,VWS V14.00,2013-02-13 15:39:00,
2013-02-13 09:44:00,42.0,34.3,30.18,WNW,284,5.0,9.0,74,0.00,,---,0.00,438.00,VWS V14.00,2013-02-13 15:44:00,
2013-02-13 09:49:00,42.2,34.5,30.18,WNW,282,4.0,9.0,74,0.00,,---,0.00,452.00,VWS V14.00,2013-02-13 15:49:00,
2013-02-13 09:54:00,42.5,34.5,30.18,WNW,282,6.0,7.0,73,0.00,,---,0.00,466.00,VWS V14.00,2013-02-13 15:54:00,
2013-02-13 09:59:00,43.2,34.8,30.18,WNW,285,4.0,8.0,72,0.00,,---,0.00,482.00,VWS V14.00,2013-02-13 15:59:00,
2013-02-13 10:04:00,43.8,34.7,30.18,WNW,286,0.0,9.0,70,0.00,,---,0.00,497.00,VWS V14.00,2013-02-13 16:04:00,
2013-02-13 10:09:00,43.8,34.3,30.18,WNW,288,6.0,12.0,69,0.00,,---,0.00,512.00,VWS V14.00,2013-02-13 16:09:00,
2013-02-13 10:14:00,44.1,34.6,30.17,WNW,282,8.0,12.0,69,0.00,,---,0.00,520.00,VWS V14.00,2013-02-13 16:14:00,
2013-02-13 10:19:00,44.0,34.1,30.18,West,277,5.0,12.0,68,0.00,,---,0.00,540.00,VWS V14.00,2013-02-13 16:19:00,
2013-02-13 10:24:00,44.3,34.4,30.17,West,277,4.0,8.0,68,0.00,,---,0.00,552.00,VWS V14.00,2013-02-13 16:24:00,
2013-02-13 10:29:00,44.7,34.8,30.18,West,265,10.0,10.0,68,0.00,,---,0.00,564.00,VWS V14.00,2013-02-13 16:29:00,
2013-02-13 10:34:00,44.9,35.0,30.18,West,263,3.0,7.0,68,0.00,,---,0.00,577.00,VWS V14.00,2013-02-13 16:34:00,
2013-02-13 10:39:00,45.9,35.2,30.18,West,269,2.0,7.0,66,0.00,,---,0.00,592.00,VWS V14.00,2013-02-13 16:39:00,
2013-02-13 10:44:00,46.1,34.6,30.18,WNW,286,6.0,8.0,64,0.00,,---,0.00,605.00,VWS V14.00,2013-02-13 16:44:00,
2013-02-13 10:49:00,46.9,35.0,30.17,WNW,290,0.0,9.0,63,0.00,,---,0.00,617.00,VWS V14.00,2013-02-13 16:49:00,
2013-02-13 10:54:00,47.3,35.0,30.17,NW,321,5.0,8.0,62,0.00,,---,0.00,624.00,VWS V14.00,2013-02-13 16:54:00,
2013-02-13 10:59:00,47.2,34.5,30.17,WNW,290,5.0,11.0,61,0.00,,---,0.00,638.00,VWS V14.00,2013-02-13 16:59:00,
2013-02-13 11:04:00,47.4,34.6,30.17,WNW,290,1.0,6.0,61,0.00,,---,0.00,649.00,VWS V14.00,2013-02-13 17:04:00,
2013-02-13 11:09:00,48.2,35.0,30.17,WNW,289,4.0,11.0,60,0.00,,---,0.00,659.00,VWS V14.00,2013-02-13 17:09:00,
2013-02-13 11:14:00,48.1,34.0,30.17,WNW,289,6.0,7.0,58,0.00,,---,0.00,668.00,VWS V14.00,2013-02-13 17:14:00,
2013-02-13 11:19:00,48.3,34.7,30.17,WNW,294,0.0,11.0,59,0.00,,---,0.00,677.00,VWS V14.00,2013-02-13 17:19:00,
2013-02-13 11:24:00,48.7,34.6,30.16,WNW,288,6.0,11.0,58,0.00,,---,0.00,689.00,VWS V14.00,2013-02-13 17:24:00,
2013-02-13 11:29:00,48.7,34.2,30.16,WNW,288,2.0,11.0,57,0.00,,---,0.00,694.00,VWS V14.00,2013-02-13 17:29:00,
2013-02-13 11:34:00,48.8,34.7,30.16,West,280,4.0,9.0,58,0.00,,---,0.00,703.00,VWS V14.00,2013-02-13 17:34:00,
2013-02-13 11:39:00,49.8,33.8,30.16,WNW,286,6.0,9.0,54,0.00,,---,0.00,712.00,VWS V14.00,2013-02-13 17:39:00,
2013-02-13 11:44:00,50.2,34.7,30.16,WNW,288,5.0,5.0,55,0.00,,---,0.00,717.00,VWS V14.00,2013-02-13 17:44:00,
2013-02-13 11:49:00,50.5,35.0,30.16,WNW,289,2.0,7.0,55,0.00,,---,0.00,726.00,VWS V14.00,2013-02-13 17:49:00,
2013-02-13 11:54:00,50.4,33.9,30.16,WNW,286,4.0,8.0,53,0.00,,---,0.00,731.00,VWS V14.00,2013-02-13 17:54:00,
2013-02-13 11:59:00,49.8,33.8,30.15,WNW,285,0.0,8.0,54,0.00,,---,0.00,737.00,VWS V14.00,2013-02-13 17:59:00,
2013-02-13 12:04:00,51.2,34.7,30.15,West,281,5.0,12.0,53,0.00,,---,0.00,740.00,VWS V14.00,2013-02-13 18:04:00,
2013-02-13 12:09:00,51.0,34.0,30.15,West,278,4.0,12.0,52,0.00,,---,0.00,745.00,VWS V14.00,2013-02-13 18:09:00,
2013-02-13 12:14:00,51.2,35.1,30.15,West,278,6.0,9.0,54,0.00,,---,0.00,751.00,VWS V14.00,2013-02-13 18:14:00,
2013-02-13 12:19:00,52.2,33.6,30.15,WNW,287,2.0,9.0,49,0.00,,---,0.00,756.00,VWS V14.00,2013-02-13 18:19:00,
2013-02-13 12:24:00,52.2,33.6,30.15,WNW,285,2.0,7.0,49,0.00,,---,0.00,758.00,VWS V14.00,2013-02-13 18:24:00,
2013-02-13 12:29:00,52.5,34.9,30.14,WNW,284,8.0,9.0,51,0.00,,---,0.00,761.00,VWS V14.00,2013-02-13 18:29:00,
2013-02-13 12:34:00,52.8,34.7,30.14,West,273,5.0,9.0,50,0.00,,---,0.00,765.00,VWS V14.00,2013-02-13 18:34:00,
2013-02-13 12:39:00,52.5,33.9,30.13,West,273,2.0,9.0,49,0.00,,---,0.00,765.00,VWS V14.00,2013-02-13 18:39:00,
2013-02-13 12:44:00,52.5,33.9,30.13,West,273,0.0,2.0,49,0.00,,---,0.00,768.00,VWS V14.00,2013-02-13 18:44:00,
2013-02-13 12:49:00,53.4,34.2,30.12,West,270,5.0,12.0,48,0.00,,---,0.00,768.00,VWS V14.00,2013-02-13 18:49:00,
2013-02-13 12:54:00,54.1,35.4,30.12,West,267,5.0,5.0,49,0.00,,---,0.00,770.00,VWS V14.00,2013-02-13 18:54:00,
2013-02-13 12:59:00,54.5,33.0,30.12,West,269,5.0,7.0,44,0.00,,---,0.00,765.00,VWS V14.00,2013-02-13 18:59:00,
2013-02-13 13:04:00,54.6,33.7,30.11,West,281,5.0,8.0,45,0.00,,---,0.00,770.00,VWS V14.00,2013-02-13 19:04:00,
2013-02-13 13:09:00,55.1,34.2,30.11,WNW,290,4.0,11.0,45,0.00,,---,0.00,765.00,VWS V14.00,2013-02-13 19:09:00,
2013-02-13 13:14:00,55.2,33.1,30.11,WNW,282,4.0,8.0,43,0.00,,---,0.00,765.00,VWS V14.00,2013-02-13 19:14:00,
2013-02-13 13:19:00,55.1,33.0,30.10,West,281,5.0,8.0,43,0.00,,---,0.00,759.00,VWS V14.00,2013-02-13 19:19:00,
2013-02-13 13:24:00,56.0,32.0,30.10,WNW,289,4.0,11.0,40,0.00,,---,0.00,758.00,VWS V14.00,2013-02-13 19:24:00,
2013-02-13 13:29:00,56.4,31.8,30.09,WNW,286,5.0,11.0,39,0.00,,---,0.00,752.00,VWS V14.00,2013-02-13 19:29:00,
2013-02-13 13:34:00,56.6,32.0,30.09,West,273,9.0,13.0,39,0.00,,---,0.00,756.00,VWS V14.00,2013-02-13 19:34:00,
2013-02-13 13:39:00,56.3,31.7,30.09,West,266,8.0,13.0,39,0.00,,---,0.00,754.00,VWS V14.00,2013-02-13 19:39:00,
2013-02-13 13:44:00,55.8,31.2,30.09,West,266,4.0,8.0,39,0.00,,---,0.00,747.00,VWS V14.00,2013-02-13 19:44:00,
2013-02-13 13:49:00,56.1,31.5,30.08,West,266,4.0,10.0,39,0.00,,---,0.00,745.00,VWS V14.00,2013-02-13 19:49:00,
2013-02-13 13:54:00,56.5,31.2,30.08,WNW,288,6.0,12.0,38,0.00,,---,0.00,738.00,VWS V14.00,2013-02-13 19:54:00,
2013-02-13 13:59:00,57.6,30.2,30.08,NNW,345,9.0,12.0,35,0.00,,---,0.00,733.00,VWS V14.00,2013-02-13 19:59:00,
2013-02-13 14:04:00,58.2,30.0,30.08,NW,313,5.0,7.0,34,0.00,,---,0.00,728.00,VWS V14.00,2013-02-13 20:04:00,
2013-02-13 14:09:00,58.5,29.5,30.08,NW,323,6.0,12.0,33,0.00,,---,0.00,724.00,VWS V14.00,2013-02-13 20:09:00,
2013-02-13 14:14:00,58.2,30.0,30.07,NW,309,4.0,11.0,34,0.00,,---,0.00,717.00,VWS V14.00,2013-02-13 20:14:00,
2013-02-13 14:19:00,58.7,29.7,30.07,NW,304,5.0,12.0,33,0.00,,---,0.00,708.00,VWS V14.00,2013-02-13 20:19:00,
2013-02-13 14:24:00,58.6,28.9,30.07,WNW,286,7.0,9.0,32,0.00,,---,0.00,701.00,VWS V14.00,2013-02-13 20:24:00,
2013-02-13 14:29:00,58.3,29.3,30.07,WNW,284,8.0,12.0,33,0.00,,---,0.00,693.00,VWS V14.00,2013-02-13 20:29:00,
2013-02-13 14:34:00,58.8,29.8,30.06,WNW,292,5.0,6.0,33,0.00,,---,0.00,680.00,VWS V14.00,2013-02-13 20:34:00,
2013-02-13 14:39:00,59.3,28.7,30.06,WNW,294,4.0,8.0,31,0.00,,---,0.00,675.00,VWS V14.00,2013-02-13 20:39:00,
2013-02-13 14:44:00,59.8,29.1,30.06,WNW,295,7.0,9.0,31,0.00,,---,0.00,664.00,VWS V14.00,2013-02-13 20:44:00,
2013-02-13 14:49:00,59.6,29.0,30.06,NW,313,5.0,14.0,31,0.00,,---,0.00,654.00,VWS V14.00,2013-02-13 20:49:00,
2013-02-13 14:54:00,59.3,27.9,30.05,NW,320,2.0,6.0,30,0.00,,---,0.00,642.00,VWS V14.00,2013-02-13 20:54:00,
2013-02-13 14:59:00,59.0,27.6,30.05,NW,318,1.0,8.0,30,0.00,,---,0.00,633.00,VWS V14.00,2013-02-13 20:59:00,
2013-02-13 15:04:00,58.1,28.4,30.05,NW,318,0.0,5.0,32,0.00,,---,0.00,622.00,VWS V14.00,2013-02-13 21:04:00,
2013-02-13 15:09:00,59.1,27.7,30.05,NW,317,0.0,11.0,30,0.00,,---,0.00,610.00,VWS V14.00,2013-02-13 21:09:00,
2013-02-13 15:14:00,59.7,27.4,30.05,NW,310,5.0,12.0,29,0.00,,---,0.00,601.00,VWS V14.00,2013-02-13 21:14:00,
2013-02-13 15:19:00,59.9,27.6,30.05,WNW,290,2.0,13.0,29,0.00,,---,0.00,587.00,VWS V14.00,2013-02-13 21:19:00,
2013-02-13 15:24:00,59.8,26.6,30.05,WNW,296,2.0,6.0,28,0.00,,---,0.00,575.00,VWS V14.00,2013-02-13 21:24:00,
2013-02-13 15:29:00,59.8,26.6,30.05,NW,307,2.0,12.0,28,0.00,,---,0.00,566.00,VWS V14.00,2013-02-13 21:29:00,
2013-02-13 15:34:00,60.2,28.7,30.05,WNW,301,7.0,9.0,30,0.00,,---,0.00,548.00,VWS V14.00,2013-02-13 21:34:00,
2013-02-13 15:39:00,60.4,27.2,30.05,WNW,302,5.0,9.0,28,0.00,,---,0.00,536.00,VWS V14.00,2013-02-13 21:39:00,
2013-02-13 15:44:00,60.2,26.1,30.04,WNW,291,5.0,14.0,27,0.00,,---,0.00,520.00,VWS V14.00,2013-02-13 21:44:00,
2013-02-13 15:49:00,59.8,24.9,30.04,WNW,291,1.0,14.0,26,0.00,,---,0.00,506.00,VWS V14.00,2013-02-13 21:49:00,
2013-02-13 15:54:00,60.0,26.8,30.04,WNW,284,2.0,12.0,28,0.00,,---,0.00,492.00,VWS V14.00,2013-02-13 21:54:00,
2013-02-13 15:59:00,59.9,25.9,30.05,WNW,284,5.0,12.0,27,0.00,,---,0.00,478.00,VWS V14.00,2013-02-13 21:59:00,
2013-02-13 16:04:00,59.6,24.7,30.05,West,281,2.0,7.0,26,0.00,,---,0.00,462.00,VWS V14.00,2013-02-13 22:04:00,
2013-02-13 16:09:00,59.6,26.5,30.04,West,281,4.0,8.0,28,0.00,,---,0.00,448.00,VWS V14.00,2013-02-13 22:09:00,
2013-02-13 16:14:00,59.7,25.7,30.05,West,281,6.0,6.0,27,0.00,,---,0.00,432.00,VWS V14.00,2013-02-13 22:14:00,
2013-02-13 16:19:00,60.1,24.2,30.05,West,281,5.0,11.0,25,0.00,,---,0.00,417.00,VWS V14.00,2013-02-13 22:19:00,
2013-02-13 16:24:00,59.9,23.0,30.05,West,281,7.0,9.0,24,0.00,,---,0.00,401.00,VWS V14.00,2013-02-13 22:24:00,
2013-02-13 16:29:00,59.9,25.0,30.05,West,281,7.0,11.0,26,0.00,,---,0.00,383.00,VWS V14.00,2013-02-13 22:29:00,
2013-02-13 16:34:00,60.2,25.2,30.05,West,281,4.0,7.0,26,0.00,,---,0.00,367.00,VWS V14.00,2013-02-13 22:34:00,
2013-02-13 16:39:00,60.2,25.2,30.05,West,281,5.0,7.0,26,0.00,,---,0.00,348.00,VWS V14.00,2013-02-13 22:39:00,
2013-02-13 16:44:00,60.0,25.0,30.04,West,281,1.0,4.0,26,0.00,,---,0.00,330.00,VWS V14.00,2013-02-13 22:44:00,
2013-02-13 16:49:00,60.3,24.4,30.04,West,281,2.0,7.0,25,0.00,,---,0.00,316.00,VWS V14.00,2013-02-13 22:49:00,
2013-02-13 16:54:00,59.9,24.0,30.04,West,280,0.0,4.0,25,0.00,,---,0.00,297.00,VWS V14.00,2013-02-13 22:54:00,
2013-02-13 16:59:00,59.9,25.0,30.05,West,280,1.0,7.0,26,0.00,,---,0.00,279.00,VWS V14.00,2013-02-13 22:59:00,
2013-02-13 17:04:00,59.8,23.9,30.05,West,280,1.0,5.0,25,0.00,,---,0.00,257.00,VWS V14.00,2013-02-13 23:04:00,
2013-02-13 17:09:00,59.8,23.9,30.05,West,280,1.0,6.0,25,0.00,,---,0.00,232.00,VWS V14.00,2013-02-13 23:09:00,
2013-02-13 17:14:00,60.0,25.0,30.05,West,280,0.0,5.0,26,0.00,,---,0.00,209.00,VWS V14.00,2013-02-13 23:14:00,
2013-02-13 17:19:00,59.9,25.0,30.05,West,280,1.0,6.0,26,0.00,,---,0.00,186.00,VWS V14.00,2013-02-13 23:19:00,
2013-02-13 17:24:00,59.5,24.6,30.04,West,280,6.0,7.0,26,0.00,,---,0.00,167.00,VWS V14.00,2013-02-13 23:24:00,
2013-02-13 17:29:00,59.4,24.5,30.04,West,280,0.0,7.0,26,0.00,,---,0.00,142.00,VWS V14.00,2013-02-13 23:29:00,
2013-02-13 17:34:00,59.3,24.4,30.04,West,280,4.0,6.0,26,0.00,,---,0.00,121.00,VWS V14.00,2013-02-13 23:34:00,
2013-02-13 17:39:00,59.3,23.5,30.04,West,280,2.0,6.0,25,0.00,,---,0.00,100.00,VWS V14.00,2013-02-13 23:39:00,
2013-02-13 17:44:00,59.1,24.3,30.04,West,280,1.0,2.0,26,0.00,,---,0.00,81.00,VWS V14.00,2013-02-13 23:44:00,
2013-02-13 17:49:00,59.2,23.4,30.05,West,280,2.0,5.0,25,0.00,,---,0.00,63.00,VWS V14.00,2013-02-13 23:49:00,
2013-02-13 17:53:00,59.1,23.3,30.05,West,280,0.0,2.0,25,0.00,,---,0.00,49.00,VWS V14.00,2013-02-13 23:53:00,
2013-02-13 17:58:00,59.1,24.3,30.05,West,280,0.0,4.0,26,0.00,,---,0.00,35.00,VWS V14.00,2013-02-13 23:58:00,
2013-02-13 18:03:00,58.7,24.8,30.05,West,280,2.0,2.0,27,0.00,,---,0.00,25.00,VWS V14.00,2013-02-14 00:03:00,
2013-02-13 18:08:00,58.5,24.7,30.05,West,280,2.0,5.0,27,0.00,,---,0.00,16.00,VWS V14.00,2013-02-14 00:08:00,
2013-02-13 18:13:00,58.3,25.4,30.05,West,280,1.0,1.0,28,0.00,,---,0.00,12.00,VWS V14.00,2013-02-14 00:13:00,
2013-02-13 18:18:00,58.2,24.4,30.05,West,280,0.0,1.0,27,0.00,,---,0.00,9.00,VWS V14.00,2013-02-14 00:18:00,
2013-02-13 18:23:00,57.8,24.1,30.05,West,280,0.0,1.0,27,0.00,,---,0.00,5.00,VWS V14.00,2013-02-14 00:23:00,
2013-02-13 18:28:00,57.5,24.7,30.05,West,280,0.0,1.0,28,0.00,,---,0.00,0.00,VWS V14.00,2013-02-14 00:28:00,
2013-02-13 18:33:00,56.9,24.1,30.05,West,280,2.0,4.0,28,0.00,,---,0.00,0.00,VWS V14.00,2013-02-14 00:33:00,
2013-02-13 18:39:00,56.5,23.8,30.05,West,280,2.0,4.0,28,0.00,,---,0.00,0.00,VWS V14.00,2013-02-14 00:39:00,
2013-02-13 18:43:00,56.1,23.5,30.05,West,280,2.0,4.0,28,0.00,,---,0.00,0.00,VWS V14.00,2013-02-14 00:43:00,
2013-02-13 18:48:00,55.8,23.2,30.06,West,280,2.0,4.0,28,0.00,,---,0.00,0.00,VWS V14.00,2013-02-14 00:48:00,
2013-02-13 18:53:00,55.6,23.0,30.06,West,280,2.0,4.0,28,0.00,,---,0.00,0.00,VWS V14.00,2013-02-14 00:53:00,
2013-02-13 18:59:00,55.5,23.8,30.06,West,280,1.0,4.0,29,0.00,,---,0.00,0.00,VWS V14.00,2013-02-14 00:59:00,
2013-02-13 19:03:00,55.2,23.5,30.06,West,280,1.0,4.0,29,0.00,,---,0.00,0.00,VWS V14.00,2013-02-14 01:03:00,
2013-02-13 19:08:00,55.0,23.4,30.06,West,280,2.0,4.0,29,0.00,,---,0.00,0.00,VWS V14.00,2013-02-14 01:08:00,
2013-02-13 19:13:00,54.7,23.9,30.06,West,280,1.0,2.0,30,0.00,,---,0.00,0.00,VWS V14.00,2013-02-14 01:13:00,
2013-02-13 19:18:00,54.4,23.6,30.07,West,280,0.0,2.0,30,0.00,,---,0.00,0.00,VWS V14.00,2013-02-14 01:18:00,
2013-02-13 19:23:00,54.0,24.1,30.07,West,280,1.0,2.0,31,0.00,,---,0.00,0.00,VWS V14.00,2013-02-14 01:23:00,
2013-02-13 19:28:00,53.8,23.9,30.07,West,280,0.0,2.0,31,0.00,,---,0.00,0.00,VWS V14.00,2013-02-14 01:28:00,
2013-02-13 19:33:00,53.6,22.9,30.07,West,280,0.0,2.0,30,0.00,,---,0.00,0.00,VWS V14.00,2013-02-14 01:33:00,
2013-02-13 19:38:00,53.5,23.6,30.07,West,280,0.0,2.0,31,0.00,,---,0.00,0.00,VWS V14.00,2013-02-14 01:38:00,
2013-02-13 19:43:00,53.3,25.0,30.07,West,280,4.0,4.0,33,0.00,,---,0.00,0.00,VWS V14.00,2013-02-14 01:43:00,
2013-02-13 19:48:00,53.0,24.0,30.07,West,280,1.0,4.0,32,0.00,,---,0.00,0.00,VWS V14.00,2013-02-14 01:48:00,
2013-02-13 19:53:00,52.9,23.9,30.07,West,280,0.0,2.0,32,0.00,,---,0.00,0.00,VWS V14.00,2013-02-14 01:53:00,
2013-02-13 19:58:00,52.7,23.7,30.07,West,280,1.0,4.0,32,0.00,,---,0.00,0.00,VWS V14.00,2013-02-14 01:58:00,
2013-02-13 20:03:00,52.7,23.7,30.08,West,280,4.0,5.0,32,0.00,,---,0.00,0.00,VWS V14.00,2013-02-14 02:03:00,
2013-02-13 20:08:00,52.9,23.9,30.08,West,280,2.0,5.0,32,0.00,,---,0.00,0.00,VWS V14.00,2013-02-14 02:08:00,
2013-02-13 20:13:00,52.9,23.9,30.08,West,280,4.0,4.0,32,0.00,,---,0.00,0.00,VWS V14.00,2013-02-14 02:13:00,
2013-02-13 20:18:00,52.8,23.8,30.08,West,280,2.0,4.0,32,0.00,,---,0.00,0.00,VWS V14.00,2013-02-14 02:18:00,
2013-02-13 20:23:00,52.8,23.8,30.08,West,280,1.0,4.0,32,0.00,,---,0.00,0.00,VWS V14.00,2013-02-14 02:23:00,
2013-02-13 20:28:00,52.8,23.8,30.08,West,280,2.0,4.0,32,0.00,,---,0.00,0.00,VWS V14.00,2013-02-14 02:28:00,
2013-02-13 20:33:00,52.8,23.8,30.08,West,280,4.0,4.0,32,0.00,,---,0.00,0.00,VWS V14.00,2013-02-14 02:33:00,
2013-02-13 20:38:00,52.8,23.8,30.08,West,280,2.0,5.0,32,0.00,,---,0.00,0.00,VWS V14.00,2013-02-14 02:38:00,
2013-02-13 20:43:00,52.8,23.8,30.08,West,280,1.0,4.0,32,0.00,,---,0.00,0.00,VWS V14.00,2013-02-14 02:43:00,
2013-02-13 20:48:00,52.8,23.8,30.09,West,280,2.0,4.0,32,0.00,,---,0.00,0.00,VWS V14.00,2013-02-14 02:48:00,
2013-02-13 20:53:00,52.7,23.7,30.09,West,280,0.0,2.0,32,0.00,,---,0.00,0.00,VWS V14.00,2013-02-14 02:53:00,
2013-02-13 20:58:00,52.5,24.2,30.09,West,280,2.0,4.0,33,0.00,,---,0.00,0.00,VWS V14.00,2013-02-14 02:58:00,
2013-02-13 21:03:00,52.4,24.2,30.09,West,280,1.0,6.0,33,0.00,,---,0.00,0.00,VWS V14.00,2013-02-14 03:03:00,
2013-02-13 21:08:00,52.3,24.1,30.09,West,280,1.0,6.0,33,0.00,,---,0.00,0.00,VWS V14.00,2013-02-14 03:08:00,
2013-02-13 21:13:00,52.0,24.5,30.09,West,280,4.0,5.0,34,0.00,,---,0.00,0.00,VWS V14.00,2013-02-14 03:13:00,
2013-02-13 21:18:00,51.7,25.0,30.09,West,280,2.0,5.0,35,0.00,,---,0.00,0.00,VWS V14.00,2013-02-14 03:18:00,
2013-02-13 21:23:00,51.5,25.5,30.09,West,280,2.0,4.0,36,0.00,,---,0.00,0.00,VWS V14.00,2013-02-14 03:23:00,
2013-02-13 21:28:00,51.5,25.5,30.09,West,280,1.0,5.0,36,0.00,,---,0.00,0.00,VWS V14.00,2013-02-14 03:28:00,
2013-02-13 21:33:00,51.4,26.0,30.09,West,280,5.0,5.0,37,0.00,,---,0.00,0.00,VWS V14.00,2013-02-14 03:33:00,
2013-02-13 21:38:00,51.2,25.2,30.09,WNW,298,2.0,8.0,36,0.00,,---,0.00,0.00,VWS V14.00,2013-02-14 03:38:00,
2013-02-13 21:43:00,51.0,25.7,30.10,NW,304,4.0,6.0,37,0.00,,---,0.00,0.00,VWS V14.00,2013-02-14 03:43:00,
2013-02-13 21:48:00,50.8,26.1,30.10,NW,304,1.0,6.0,38,0.00,,---,0.00,0.00,VWS V14.00,2013-02-14 03:48:00,
2013-02-13 21:53:00,50.8,27.4,30.10,NW,304,5.0,5.0,40,0.00,,---,0.00,0.00,VWS V14.00,2013-02-14 03:53:00,
2013-02-13 21:58:00,50.7,27.3,30.09,NW,304,0.0,6.0,40,0.00,,---,0.00,0.00,VWS V14.00,2013-02-14 03:58:00,
2013-02-13 22:03:00,50.6,26.6,30.09,NW,304,0.0,2.0,39,0.00,,---,0.00,0.00,VWS V14.00,2013-02-14 04:03:00,
2013-02-13 22:08:00,50.5,27.1,30.10,NW,304,1.0,5.0,40,0.00,,---,0.00,0.00,VWS V14.00,2013-02-14 04:08:00,
2013-02-13 22:13:00,50.4,27.0,30.10,NW,304,1.0,2.0,40,0.00,,---,0.00,0.00,VWS V14.00,2013-02-14 04:13:00,
2013-02-13 22:18:00,50.1,27.3,30.10,NW,304,0.0,2.0,41,0.00,,---,0.00,0.00,VWS V14.00,2013-02-14 04:18:00,
2013-02-13 22:23:00,49.9,27.7,30.10,NW,304,0.0,4.0,42,0.00,,---,0.00,0.00,VWS V14.00,2013-02-14 04:23:00,
2013-02-13 22:28:00,49.7,28.1,30.10,NW,304,2.0,4.0,43,0.00,,---,0.00,0.00,VWS V14.00,2013-02-14 04:28:00,
2013-02-13 22:33:00,49.5,28.0,30.11,NW,304,0.0,0.0,43,0.00,,---,0.00,0.00,VWS V14.00,2013-02-14 04:33:00,
2013-02-13 22:38:00,49.3,28.3,30.10,NW,304,0.0,2.0,44,0.00,,---,0.00,0.00,VWS V14.00,2013-02-14 04:38:00,
2013-02-13 22:43:00,49.0,28.6,30.11,NW,304,4.0,4.0,45,0.00,,---,0.00,0.00,VWS V14.00,2013-02-14 04:43:00,
2013-02-13 22:48:00,48.6,28.2,30.10,NW,304,2.0,5.0,45,0.00,,---,0.00,0.00,VWS V14.00,2013-02-14 04:48:00,
2013-02-13 22:53:00,48.2,28.4,30.10,NW,304,1.0,2.0,46,0.00,,---,0.00,0.00,VWS V14.00,2013-02-14 04:53:00,
2013-02-13 22:58:00,47.9,28.7,30.10,NW,304,4.0,6.0,47,0.00,,---,0.00,0.00,VWS V14.00,2013-02-14 04:58:00,
2013-02-13 23:00:00,47.8,28.6,30.10,NW,304,4.0,6.0,47,0.00,,---,0.00,0.00,VWS V14.00,2013-02-14 05:00:00,
2013-02-13 23:05:00,47.6,28.9,30.10,NW,304,1.0,4.0,48,0.00,,---,0.00,0.00,VWS V14.00,2013-02-14 05:05:00,
2013-02-13 23:10:00,47.4,28.7,30.10,NW,304,2.0,5.0,48,0.00,,---,0.00,0.00,VWS V14.00,2013-02-14 05:10:00,
2013-02-13 23:15:00,47.3,29.1,30.10,NW,304,1.0,5.0,49,0.00,,---,0.00,0.00,VWS V14.00,2013-02-14 05:15:00,
2013-02-13 23:20:00,47.1,29.4,30.10,NW,304,0.0,5.0,50,0.00,,---,0.00,0.00,VWS V14.00,2013-02-14 05:20:00,
2013-02-13 23:25:00,47.0,29.3,30.11,NW,304,1.0,6.0,50,0.00,,---,0.00,0.00,VWS V14.00,2013-02-14 05:25:00,
2013-02-13 23:30:00,47.0,29.8,30.11,NW,304,2.0,6.0,51,0.00,,---,0.00,0.00,VWS V14.00,2013-02-14 05:30:00,
2013-02-13 23:35:00,47.0,29.8,30.11,NW,304,4.0,6.0,51,0.00,,---,0.00,0.00,VWS V14.00,2013-02-14 05:35:00,
2013-02-13 23:40:00,47.0,29.8,30.11,NW,304,4.0,7.0,51,0.00,,---,0.00,0.00,VWS V14.00,2013-02-14 05:40:00,
2013-02-13 23:45:00,47.0,29.8,30.11,NW,305,2.0,7.0,51,0.00,,---,0.00,0.00,VWS V14.00,2013-02-14 05:45:00,
2013-02-13 23:50:00,46.8,29.6,30.10,NW,308,2.0,8.0,51,0.00,,---,0.00,0.00,VWS V14.00,2013-02-14 05:50:00,
2013-02-13 23:55:00,46.7,29.5,30.10,NW,309,6.0,7.0,51,0.00,,---,0.00,0.00,VWS V14.00,2013-02-14 05:55:00,